KANOPUS-V 6

导读

KANOPUS-V 6(老人星-V 6)是俄罗斯(CIS)研制的“老人星-V”系列环境监测遥感卫星,于2018年12月27日发射升空,运行于510千米高度的太阳同步轨道。卫星质量约465千克,设计寿命5年,搭载全色与多光谱成像系统,可实现2.1米全色、10.5米多光谱分辨率观测。主要承担灾害监测、国土资源测绘、森林火灾预警、环境污染物监测及农业与自然资源动态监测任务,为地球环境观测与应急管理提供高分辨率遥感数据支持。

基本信息
目录编号:
43877
目录名称:
KANOPUS-V 6
国际标识:
2018-111B
轨道中心:
EARTH
卫星名称:
KANOPUS-V 6
卫星全名:
--
卫星状态:
在轨 (已飞行2819 天)
发射日期:
2018-12-27 UTC
国别 :
俄罗斯(独联体) (CIS)
星等 :
--
该卫星已列入 空间交会检测服务 Space Conjunction Data Service (SCDS) ,当前飞行风险评估等级: 无高风险
轨道信息
数据来源 国际轨道数据
星历时间: 2026-09-15T11:20:21+0800
11小时前
查看轨道信息
半长轴: 6823.519km
偏心率: 0.0001823
轨道倾角: 97.366°
近地点辐角 85.342°
升交点赤经 175.944°
平近点角 274.803°
近地点: 444.138km
远地点: 446.626km
周期: 93.492分钟
每日圈数: 15.402465
详细信息
使用方式:
暂无
2D轨道图
3D轨道图
轨道高度分析图
轨道倾角分析图
轨道综合分析图
查看轨道综合分析图
交会数据列表
事件ID 空间交会对象 最接近时刻(TCA) 交会距离 交会风险概率(CRP) 交会风险指数(CRI) 操作
CDM_260918-024104-387705-890021
2026-09-18T
02:41:36+0000
2.360 km
极远距离
1.386535E-6 低风险 0.38
与全量物体交会距离演化趋势 订阅飞行安全评估服务
与全量物体交会风险概率演化趋势 订阅飞行安全评估服务